{"data":{"norad_id":63145,"epoch":"2026-09-21T06:57:37.569888Z","epoch_age_seconds":93941,"freshness":"FRESH","line1":"1 63145U 25043P   26264.29001817  .00013987  00000+0  51661-3 0  9990","line2":"2 63145  43.0047 351.8607 0001203 172.9496 187.1373 15.27593601 87849","mean_motion":15.27593601,"eccentricity":0.0001203,"inclination_deg":43.0047,"raan_deg":351.8607,"arg_perigee_deg":172.9496,"mean_anomaly_deg":187.1373,"bstar":0.00051661,"rev_number":8784,"period_min":94.265909405312,"perigee_km":482.18297426688,"apogee_km":483.83376584291,"semimajor_km":6861.1453700549,"source":"CELESTRAK","updated_at":"2026-09-22T09:00:49.792566Z"}}